Home   Weather   Spain   Ceuta   Past weeks
Flag for Spain

Past Weather in Ceuta, Ceuta, Spain — Yesterday and Last 2 Weeks

Currently: 64 °F. Passing clouds. (Weather station: Gibraltar Airport, Spain). See more current weather

Past Weather in Ceuta — Graph

°F

Ceuta Temperature Yesterday

Maximum temperature yesterday: 72 °F (at 4:50 pm)
Minimum temperature yesterday: 55 °F (at 6:50 am)
Average temperature yesterday: 65 °F

High & Low Weather Summary for the Past Weeks

 TemperatureHumidityPressure
High82 °F (Apr 16, 3:20 pm)94% (Apr 11, 7:50 am)30.45 "Hg (Apr 11, 7:50 am)
Low55 °F (Apr 9, 6:50 am)24% (Apr 15, 2:20 pm)29.86 "Hg (Apr 17, 5:20 am)
Average65 °F70%30.12 "Hg
* Reported Apr 8 9:20 am — Apr 23 9:50 am, Ceuta. Weather by CustomWeather, © 2024

Note: Actual official high and low records may vary slightly from our data, if they occured in-between our weather recording intervals... More about our weather records

Ceuta Weather History for the Previous 24 Hours

Scroll right to see more
 ConditionsComfort  
Time TempWeatherWind HumidityBarometerVisibility
9:50 am
Tue, Apr 23
64 °FPassing clouds.12 mph78%29.98 "HgN/A
9:20 am64 °FPassing clouds.13 mph78%29.98 "HgN/A
8:50 am64 °FPassing clouds.15 mph78%29.98 "HgN/A
7:50 am63 °FScattered clouds.13 mph88%29.95 "HgN/A
6:50 am63 °FPassing clouds.12 mph88%29.95 "HgN/A
5:50 am64 °FPassing clouds.14 mph83%29.95 "HgN/A
5:20 am64 °FOvercast.18 mph88%29.95 "HgN/A
4:50 am64 °FOvercast.21 mph88%29.95 "HgN/A
4:20 am64 °FLow clouds.18 mph88%29.95 "HgN/A
3:50 am64 °FPassing clouds.15 mph88%29.95 "HgN/A
2:50 am66 °FMild.8 mph68%29.92 "HgN/A
2:20 am66 °FMild.8 mph68%29.92 "HgN/A
1:20 am66 °FMild.10 mph73%29.95 "HgN/A
12:50 am68 °FMild.10 mph64%29.95 "HgN/A
12:20 am68 °FMild.10 mph64%29.95 "HgN/A
11:50 pm
Mon, Apr 22
68 °FMild.12 mph69%29.95 "HgN/A
11:20 pm68 °FMild.12 mph64%29.95 "HgN/A
10:50 pm70 °FMild.10 mph60%29.92 "HgN/A
10:20 pm70 °FMild.8 mph60%29.92 "HgN/A
9:50 pm68 °FMild.12 mph69%29.92 "HgN/A
9:20 pm70 °FMild.9 mph64%29.89 "HgN/A
8:50 pm70 °FPassing clouds.12 mph64%29.89 "HgN/A
8:20 pm72 °FPassing clouds.12 mph61%29.86 "HgN/A
7:50 pm70 °FPassing clouds.14 mph64%29.86 "HgN/A
7:20 pm70 °FPassing clouds.14 mph64%29.86 "HgN/A
6:50 pm70 °FSunny.15 mph60%29.86 "Hg10 mi
6:20 pm70 °FPassing clouds.16 mph60%29.86 "HgN/A
5:50 pm70 °FPassing clouds.16 mph60%29.86 "HgN/A
5:20 pm72 °FSunny.12 mph53%29.86 "Hg10 mi
4:50 pm72 °FPassing clouds.10 mph47%29.89 "HgN/A
3:50 pm70 °FPassing clouds.7 mph64%29.89 "HgN/A
2:50 pm68 °FPassing clouds.6 mph69%29.92 "HgN/A
2:20 pm68 °FPassing clouds.6 mph69%29.92 "HgN/A
1:50 pm66 °FPassing clouds.7 mph73%29.92 "HgN/A
1:20 pm68 °FPassing clouds.7 mph69%29.95 "HgN/A
12:50 pm66 °FScattered clouds.7 mph68%29.95 "HgN/A
12:20 pm66 °FScattered clouds.7 mph68%29.95 "HgN/A
11:50 am64 °FSunny.2 mph73%29.95 "Hg10 mi
11:20 am63 °FSunny.2 mph73%29.95 "Hg10 mi
Weather by CustomWeather, © 2024

See weather overview